User: anonymous   Login
Location: Unspecified
(0.0000°N, 0.0000°E)
Time: 01:18:53
(UTC+00:00)
Language:

Magion-3 - Orbit

View from above orbital plane
View from above orbital plane
View from above satellite
View from above satellite

Ground track
Ground track

The orbit data is extracted from the following two-line orbital elements,

1 21835U 91086E   18200.32611682 +.00000306 +00000-0 +56408-4 0  9999
2 21835 082.5386 152.7232 1498409 222.5661 124.9296 12.10655740162962
Epoch (UTC): 19 July 2018 07:49:36
Eccentricity: 0.1498409
inclination: 82.5386°
perigee height: 433 km
apogee height: 2834 km
right ascension of ascending node: 152.7232°
argument of perigee: 222.5661°
revolutions per day: 12.10655740
mean anomaly at epoch: 124.9296°
orbit number at epoch: 16296

The dashed part of the orbit path shows where the satellite is in the earth's shadow,  

DLR